Regional Weather Roundup
Issued by NWS Charleston, SC

Current Version | Previous Version | Graphics & Text | Print | Product List | Glossary On
Versions: 1 2 3 4 5 6 7 8 9 10 11 12 13 14 15 16 17 18 19 20 21 22 23 24 25 26 27 28 29 30 31 32 33 34 35 36 37 38 39 40 41 42 43 44 45 46 47 48 49 50
000
ASUS42 KCHS 071627
RWRCHS

REGIONAL WEATHER ROUNDUP
NATIONAL WEATHER SERVICE CHARLESTON SC
1100 AM EST WED DEC 07 2016

NOTE: "FAIR" INDICATES FEW OR NO CLOUDS BELOW 12,000 FEET WITH NO
SIGNIFICANT WEATHER AND/OR OBSTRUCTIONS TO VISIBILITY.

NOT ALL STATIONS ARE QUALITY CONTROLLED. USE DATA WITH CAUTION...
ESPECIALLY DEWPOINT OBSERVATIONS.

SCZ027-030-031-034>040-042>050-071700-
...SOUTHEAST SOUTH CAROLINA...

CITY           SKY/WX    TMP DP  RH WIND       PRES   REMARKS
N CHARLESTON   CLOUDY    55  49  80 E5        30.09S
WATERFRONT PRK   N/A     53  52  96 CALM      30.08
MOUNT PLEASANT PTSUNNY   55  50  82 E3        30.09S
JOHNS ISLAND   CLOUDY    54  52  94 CALM      30.09S
PINOPOLIS        N/A     50  48  93 VRB3      30.02R
MONCKS CORNER  CLOUDY    52  48  87 CALM      30.09F
SUMMERVILLE    CLOUDY    54  54 100 CALM      30.10S
BEAUFORT MCAS  CLOUDY    55  53  93 CALM      30.08S
BEAUFORT ARPT  CLOUDY    55  52  88 CALM      30.09S
HILTON HEAD IS CLOUDY    59  57  94 CALM      30.10R
WALTERBORO     CLOUDY    54 N/A N/A SE3       30.10S
ALLENDALE      CLOUDY    54  54 100 SE3       30.08S FOG

...SOUTHERN MIDLANDS AND PEE DEE...

CITY           SKY/WX    TMP DP  RH WIND       PRES   REMARKS
GEORGETOWN     FAIR      57  46  67 E6        30.08F
KINGSTREE      FAIR      54  45  71 CALM      30.08F
ORANGEBURG     CLOUDY    51  49  92 E3        30.09S
BARNWELL       NOT AVBL
AIKEN          CLOUDY    50  48  93 NE3       30.11R FOG
MANNING        FAIR      52  45  76 CALM      30.09F
COLUMBIA       PTSUNNY   55  48  77 SE8       30.09R
SUMTER         MOSUNNY   50  45  82 CALM      30.07S
FLORENCE       SUNNY     56  46  69 NE6       30.08F
MYRTLE BEACH   SUNNY     55  45  67 N8        30.09S
N MYRTLE BEACH SUNNY     56  46  69 NE7       30.06S

$$

GAZ063-065-086>088-099>101-113>116-118-119-134>141-150-071700-
...SOUTHEAST GEORGIA...

CITY           SKY/WX    TMP DP  RH WIND       PRES   REMARKS
SAVANNAH ARPT  CLOUDY    59  54  83 CALM      30.09S
HUNTER AAF     CLOUDY    59  59 100 CALM      30.06S
FORT STEWART   CLOUDY    63  54  72 CALM      30.06S
STATESBORO     NOT AVBL
SYLVANIA       CLOUDY   N/A N/A N/A CALM      30.10S
CLAXTON        CLOUDY    60  56  85 CALM      30.08F

...CSRA...CENTRAL AND FAR SOUTHEAST GEORGIA...

CITY           SKY/WX    TMP DP  RH WIND       PRES   REMARKS
THOMSON        CLOUDY    54  54 100 SE3       30.12S
AUGUSTA-BUSH   CLOUDY    54  51  90 SE5       30.07S FOG
AUGUSTA-DANIEL CLOUDY    54  49  83 SE3       30.08S
SWAINSBORO     FAIR      61  50  67 CALM      30.08S
VIDALIA        PTSUNNY   63  55  77 CALM      30.08F
EASTMAN        CLOUDY    60  46  59 W6        30.11S
HAZLEHURST     FAIR      63  56  77 CALM      30.08S
ALMA           PTSUNNY   63  53  70 VRB3      30.08F
WAYCROSS       MOSUNNY   66  58  75 CALM      30.08F
JESUP          CLOUDY    63  59  88 CALM      30.08F
BAXLEY         PTSUNNY   61  55  82 NE3       30.08F
BRUNSWICK      CLOUDY    64  59  82 W3        30.08F
SAINT SIMONS   CLOUDY    64  55  72 CALM      30.08S

$$

SCZ027-028-034-036>038-045-046-048>050-GAZ119-141-071700-
...LAKE AND SUPPLEMENTAL COASTAL OBSERVATIONS...

STATION/POSITION TIME  TEMP    WIND        PRES    WAVE   SWELL
                       AIR SEA DIR/SP/G            HT/PER HT/PER/DIR
                 (UTC) (F)     (DEG/KT/KT) (MB)    (FT/S) (FT/S/D)
WINYAH BAY       1530   55      50/  5     1018.0S
LAKE MURRAY      1550   49      80/  1/  5 1018.6R
ACE BASIN NERRS  1545   54        CALM     1019.0R
FORT PULASKI     1600   57 62   50/  2/  5 1018.8
SAPELO ISLAND    1600   64      10/  4     1019.0

$$

ANZ835-935-AMZ111-154-330-350-352-354-370-450-454-472-071700-
...C-MAN AND BUOY OBSERVATIONS...

STATION/POSITION TIME  TEMP    WIND        PRES    WAVE   SWELL
                       AIR SEA DIR/SP/G            HT/PER HT/PER/DIR
                 (UTC) (F)     (DEG/KT/KT) (MB)    (FT/S) (FT/S/D)
BUOY 41004       1550   60 74   10/  8/ 12 1017.8R   2/ 8   2/160/ 8
BUOY 41008       1550   60 65   20/  8/ 10 1018.1R   2/ 7   2/120/ 7
FOLLY BEACH CMAN 1600   53      60/  6/  7 1019.3R
CAPERS NEARSHORE 1508   52 60   30/  8/ 12 1018.7R
FRIPP NEARSHORE  1608   55 61  360/  2/  4 1018.6S


STATION/POSITION TIME  TEMP    WIND        PRES    WAVE   SWELL
                       AIR SEA DIR/SP/G            HT/PER HT/PER/DIR
                 (UTC) (F)     (DEG/KT/KT) (MB)    (FT/S) (FT/S/D)
5E ST. MARYS GA  1600      66                N/A     1/ 7
FRYING PAN BUOY  1610   55 74   10/ 12/ 16 1017.1
BUOY 41025       1550   54 76  350/ 16/ 21 1016.4R   6/11   3/ 80/11
CAPE LOOKOUT NC  1600   51     350/ 11/ 13 1017.1R
BUOY 41002       1550   71 74  310/ 16/ 17 1015.2S   8/ 8   7/250/ 8
BUOY 41010       NOT AVBL
ST AUGUSTINE FL  1600   63 67  360/  6/  7 1019.2S


$$




USA.gov is the U.S. government's official web portal to all federal, state and local government web resources and services.